TimePST,TemperatureF,Dew PointF,Humidity,Sea Level PressureIn,VisibilityMPH,Wind Direction,Wind SpeedMPH,Gust SpeedMPH,PrecipitationIn,Events,Conditions,WindDirDegrees,DateUTC
12:14 AM,32.0,32.0,100,29.95,0.8,Calm,Calm,-,N/A,,Overcast,0,2013-01-26 08:14:00
12:24 AM,32.0,32.0,100,29.94,0.8,Calm,Calm,-,0.00,,Overcast,0,2013-01-26 08:24:00
12:26 AM,32.0,32.0,100,29.94,1.0,Calm,Calm,-,0.00,,Overcast,0,2013-01-26 08:26:00
12:37 AM,32.0,32.0,100,29.94,1.5,Calm,Calm,-,0.00,,Overcast,0,2013-01-26 08:37:00
12:46 AM,32.0,32.0,100,29.94,2.0,Calm,Calm,-,0.00,,Overcast,0,2013-01-26 08:46:00
12:53 AM,32.0,32.0,100,29.97,2.0,Calm,Calm,-,0.00,,Overcast,0,2013-01-26 08:53:00
1:02 AM,32.0,32.0,100,29.93,1.2,Calm,Calm,-,0.00,,Overcast,0,2013-01-26 09:02:00
1:10 AM,33.8,33.8,100,29.93,2.0,Calm,Calm,-,0.00,,Overcast,0,2013-01-26 09:10:00
1:18 AM,33.8,33.8,100,29.93,6.0,WSW,3.5,-,0.00,,Overcast,240,2013-01-26 09:18:00
1:53 AM,33.1,33.1,100,29.96,2.5,WNW,3.5,-,0.02,Rain,Rain,290,2013-01-26 09:53:00
2:05 AM,33.8,33.8,100,29.94,4.0,Calm,Calm,-,0.00,Rain,Light Rain,0,2013-01-26 10:05:00
2:15 AM,33.8,33.8,100,29.93,4.0,NE,3.5,-,0.00,,Mostly Cloudy,50,2013-01-26 10:15:00
2:26 AM,33.8,33.8,100,29.93,3.0,East,3.5,-,0.00,,Scattered Clouds,80,2013-01-26 10:26:00
2:33 AM,33.8,33.8,100,29.93,2.5,ESE,3.5,-,0.00,,Scattered Clouds,120,2013-01-26 10:33:00
2:44 AM,32.0,32.0,100,29.93,1.0,Calm,Calm,-,0.00,Rain,Light Rain,0,2013-01-26 10:44:00
2:49 AM,33.8,33.8,100,29.93,0.8,Calm,Calm,-,0.00,Rain,Light Rain,0,2013-01-26 10:49:00
2:53 AM,33.1,33.1,100,29.95,0.8,Calm,Calm,-,0.00,Rain,Light Rain,0,2013-01-26 10:53:00
3:03 AM,33.8,33.8,100,29.92,1.5,WNW,3.5,-,0.01,Rain,Light Rain,300,2013-01-26 11:03:00
3:07 AM,33.8,33.8,100,29.92,3.0,Calm,Calm,-,0.01,Rain,Light Rain,0,2013-01-26 11:07:00
3:26 AM,33.8,33.8,100,29.92,5.0,Calm,Calm,-,0.01,,Overcast,0,2013-01-26 11:26:00
3:38 AM,35.6,35.6,100,29.91,8.0,WNW,5.8,-,0.02,Rain,Light Rain,300,2013-01-26 11:38:00
3:45 AM,35.6,35.6,100,29.91,10.0,WNW,4.6,-,0.02,,Mostly Cloudy,290,2013-01-26 11:45:00
3:53 AM,33.1,33.1,100,29.93,10.0,Calm,Calm,-,0.02,,Mostly Cloudy,0,2013-01-26 11:53:00
4:51 AM,33.8,33.8,100,29.90,8.0,NNW,8.1,-,0.00,Rain,Light Rain,330,2013-01-26 12:51:00
4:53 AM,34.0,34.0,100,29.92,8.0,NNW,9.2,-,0.00,Rain,Light Rain,330,2013-01-26 12:53:00
5:18 AM,33.8,33.8,100,29.90,10.0,NW,8.1,-,0.01,Rain,Light Rain,310,2013-01-26 13:18:00
5:53 AM,33.1,32.0,96,29.94,10.0,NW,8.1,-,0.01,,Overcast,320,2013-01-26 13:53:00
6:01 AM,33.8,32.0,93,29.91,7.0,NW,8.1,-,N/A,,Overcast,320,2013-01-26 14:01:00
6:53 AM,33.8,30.2,87,29.94,7.0,NW,4.6,-,N/A,,Overcast,310,2013-01-26 14:53:00
7:27 AM,33.8,30.2,87,29.92,10.0,WSW,3.5,-,N/A,,Mostly Cloudy,250,2013-01-26 15:27:00
7:53 AM,33.1,32.0,96,29.95,10.0,SW,3.5,-,N/A,,Mostly Cloudy,230,2013-01-26 15:53:00
8:53 AM,33.1,30.9,92,29.96,10.0,WNW,3.5,-,N/A,,Mostly Cloudy,290,2013-01-26 16:53:00
9:53 AM,34.0,28.0,79,29.97,10.0,West,8.1,-,N/A,,Mostly Cloudy,270,2013-01-26 17:53:00
10:53 AM,35.1,27.0,72,29.97,10.0,West,6.9,-,N/A,,Mostly Cloudy,280,2013-01-26 18:53:00
11:53 AM,36.0,27.0,70,29.96,10.0,WNW,8.1,-,N/A,,Mostly Cloudy,300,2013-01-26 19:53:00
12:53 PM,37.0,27.0,67,29.93,10.0,West,5.8,-,N/A,,Mostly Cloudy,260,2013-01-26 20:53:00
1:53 PM,37.0,26.1,65,29.92,10.0,NW,10.4,-,N/A,,Mostly Cloudy,310,2013-01-26 21:53:00
2:53 PM,36.0,25.0,64,29.92,10.0,WNW,11.5,-,N/A,,Mostly Cloudy,290,2013-01-26 22:53:00
3:53 PM,35.1,23.0,61,29.93,10.0,West,11.5,-,N/A,,Mostly Cloudy,280,2013-01-26 23:53:00
4:53 PM,33.1,25.0,72,29.93,10.0,WNW,6.9,-,N/A,,Scattered Clouds,290,2013-01-27 00:53:00
5:53 PM,32.0,24.1,73,29.95,10.0,WNW,8.1,-,N/A,,Mostly Cloudy,290,2013-01-27 01:53:00
6:53 PM,30.9,25.0,79,29.97,10.0,WNW,6.9,-,N/A,,Mostly Cloudy,290,2013-01-27 02:53:00
7:53 PM,30.0,27.0,88,29.98,10.0,WNW,8.1,-,N/A,,Mostly Cloudy,300,2013-01-27 03:53:00
8:53 PM,30.0,26.1,85,29.99,10.0,NNW,9.2,-,N/A,,Mostly Cloudy,340,2013-01-27 04:53:00
9:53 PM,30.0,26.1,85,30.01,10.0,WNW,4.6,-,N/A,,Mostly Cloudy,300,2013-01-27 05:53:00
10:53 PM,28.0,24.1,85,30.02,10.0,NW,4.6,-,N/A,,Clear,310,2013-01-27 06:53:00
11:53 PM,26.1,23.0,88,30.04,10.0,Calm,Calm,-,N/A,,Clear,0,2013-01-27 07:53:00